Location: Devore Heights
(34.2372°N, 117.4156°W)
Time: 04:19:06
(UTC+00:00)

Vanguard 2 Rocket - Pass Details

Date: 14 September 2024
Orbit: 553 x 3298 km, 32.9° (Epoch: 14 October)

Event Time Altitude Azimuth Distance (km) Brightness Sun altitude
Exits shadow 07:59:24 20° 89° (E) 4,116 10.1 -52.4°
Drops below altitude 10° 08:03:37 10° 81° (E) 5,245 10.8 -52.3°
Sets 08:08:57 0° 75° (ENE) 6,649 11.5 -52.2°
